Location: Espelette
(43.3402°N, 1.4474°W)
Time: 18:18:45
(UTC+00:00)

Cosmos 1833 Rocket - Pass Details

Date: 19 May 2025
Orbit: 831 x 838 km, 71.0° (Epoch: 22 June)

Event Time Altitude Azimuth Distance (km) Brightness Sun altitude
Rises 20:20:01 0° 181° (S) 3,373 5.5 -8.8°
Reaches altitude 10° 20:22:34 10° 173° (S) 2,443 4.7 -9.1°
Maximum altitude 20:27:45 39° 106° (ESE) 1,229 3.1 -9.8°
Drops below altitude 10° 20:32:57 10° 39° (NE) 2,460 5.2 -10.6°
Sets 20:35:31 0° 32° (NNE) 3,399 6.0 -10.9°
